Weather History for Jefferson, NC

Change the Weather History Date:

Monday, February 10, 2014

  Actual Average Record
Temperature  
Mean Temperature 29 °F -  
Max Temperature 32 °F 42 °F 64 °F (1976)
Min Temperature 25 °F 20 °F 1 °F (1971)
Degree Days  
Heating Degree Days 36    
Moisture  
Dew Point 24 °F    
Average Humidity 80    
Maximum Humidity 92    
Minimum Humidity 67    
Precipitation  
Precipitation 0.00 in - - ()
Sea Level Pressure  
Sea Level Pressure 30.04 in    
Wind  
Wind Speed 8 mph (NW)    
Max Wind Speed 17 mph    
Max Gust Speed 24 mph    
Visibility 9 miles    
Events Snow    
Averages and records for this station are not official NWS values.
T = Trace of Precipitation, MM = Missing Value Source: NWS Daily Summary

Daily Weather History Graph

Daily Weather History Graph

Search for Another Location

Airport:

Trip Planner

Search our weather history database for the weather conditions in past years. The results will help you decide how hot, cold, wet, or windy it might be!

Date:

Astronomy

Feb. 10, 2014 Rise Set
Actual Time 7:18 AM EST 6:01 PM EST
Civil Twilight 6:52 AM EST 6:28 PM EST
Nautical Twilight 6:21 AM EST 6:58 PM EST
Astronomical Twilight 5:51 AM EST 7:28 PM EST
Moon 2:32 PM EST (2/10) 4:08 AM EST (2/10)
Length of Visible Light 11h 35m
Length of Day
10h 42m
Waxing Gibbous, 84% of the Moon is Illuminated
Feb 10
Waxing Gibbous
Feb 14
Full
Feb 22
Last Quarter
Mar 1
New
Mar 8
First Quarter

Hourly Weather History & Observations

Time (EST) Temp. Windchill Dew Point Humidity Pressure Visibility Wind Dir Wind Speed Gust Speed Precip Events Conditions
12:15 AM 33.1 °F 22.6 °F 28.2 °F 82% 29.98 in 10.0 mi WNW 16.1 mph 21.9 mph N/A   Overcast
12:35 AM 32.7 °F 21.8 °F 28.2 °F 83% 29.98 in 10.0 mi WNW 17.3 mph 23.0 mph N/A   Overcast
12:55 AM 32.2 °F 21.8 °F 28.2 °F 85% 29.98 in 10.0 mi West 15.0 mph 23.0 mph N/A   Overcast
1:15 AM 32.0 °F 24.8 °F 28.2 °F 86% 29.98 in 7.0 mi West 8.1 mph 19.6 mph N/A   Overcast
1:35 AM 32.0 °F 23.6 °F 27.5 °F 83% 29.99 in 10.0 mi WNW 10.4 mph 20.7 mph N/A   Overcast
1:55 AM 32.0 °F 23.0 °F 27.3 °F 83% 29.98 in 10.0 mi West 11.5 mph - N/A   Overcast
2:15 AM 32.0 °F 24.2 °F 27.1 °F 82% 29.98 in 10.0 mi West 9.2 mph 16.1 mph N/A   Overcast
2:35 AM 32.0 °F 24.8 °F 27.0 °F 82% 29.98 in 10.0 mi West 8.1 mph - N/A   Overcast
2:55 AM 32.0 °F 24.2 °F 26.6 °F 80% 29.98 in 10.0 mi West 9.2 mph - N/A   Overcast
3:15 AM 31.8 °F 28.5 °F 26.8 °F 82% 29.99 in 10.0 mi WNW 3.5 mph - N/A   Overcast
3:35 AM 31.1 °F 26.4 °F 27.1 °F 85% 29.98 in 10.0 mi NNW 4.6 mph - N/A   Overcast
3:55 AM 30.2 °F 21.9 °F 28.0 °F 92% 29.98 in 7.0 mi NW 9.2 mph - N/A   Overcast
4:15 AM 30.2 °F 22.6 °F 27.9 °F 91% 29.98 in 10.0 mi WNW 8.1 mph - N/A   Overcast
4:35 AM 30.0 °F 25.2 °F 27.3 °F 90% 29.98 in 10.0 mi NW 4.6 mph - N/A   Overcast
4:55 AM 29.8 °F 26.3 °F 27.0 °F 89% 29.97 in 10.0 mi NNW 3.5 mph - N/A   Overcast
5:15 AM 29.8 °F 23.0 °F 26.6 °F 88% 29.97 in 10.0 mi NNW 6.9 mph - N/A   Overcast
5:35 AM 30.2 °F 24.3 °F 26.1 °F 85% 29.98 in 10.0 mi WNW 5.8 mph - N/A   Overcast
5:55 AM 30.2 °F 23.4 °F 25.7 °F 83% 29.98 in 10.0 mi WNW 6.9 mph - N/A   Overcast
6:15 AM 30.7 °F 20.4 °F 25.5 °F 81% 29.98 in 10.0 mi WNW 13.8 mph 20.7 mph N/A   Overcast
6:35 AM 30.7 °F 20.0 °F 25.0 °F 79% 29.98 in 10.0 mi WNW 15.0 mph 24.2 mph N/A   Mostly Cloudy
6:55 AM 30.7 °F 20.4 °F 24.8 °F 79% 29.99 in 10.0 mi WNW 13.8 mph 21.9 mph N/A   Scattered Clouds
7:15 AM 30.6 °F - 25.0 °F 80% 30.00 in 10.0 mi Calm Calm - N/A   Mostly Cloudy
7:35 AM 30.2 °F 26.7 °F 25.3 °F 82% 30.01 in 10.0 mi East 3.5 mph - N/A   Overcast
7:55 AM 30.6 °F 23.1 °F 25.0 °F 80% 30.02 in 10.0 mi WNW 8.1 mph 16.1 mph N/A   Overcast
8:15 AM 30.2 °F 22.6 °F 25.2 °F 82% 30.03 in 10.0 mi WNW 8.1 mph - N/A   Overcast
8:35 AM 30.2 °F 26.7 °F 25.3 °F 82% 30.04 in 10.0 mi West 3.5 mph - N/A   Overcast
8:55 AM 30.2 °F 23.4 °F 25.3 °F 82% 30.05 in 10.0 mi WNW 6.9 mph - N/A   Overcast
9:15 AM 29.8 °F 21.5 °F 25.5 °F 84% 30.06 in 10.0 mi WNW 9.2 mph - N/A   Overcast
9:35 AM 29.7 °F 26.1 °F 25.7 °F 85% 30.07 in 10.0 mi WNW 3.5 mph - N/A   Overcast
9:55 AM 29.3 °F 22.3 °F 25.9 °F 87% 30.07 in 10.0 mi NNW 6.9 mph - N/A   Overcast
10:15 AM 29.7 °F 23.7 °F 25.7 °F 85% 30.07 in 10.0 mi NNW 5.8 mph - N/A   Overcast
10:35 AM 30.0 °F 25.2 °F 25.5 °F 83% 30.06 in 10.0 mi WNW 4.6 mph - N/A   Overcast
10:55 AM 30.2 °F 23.4 °F 25.3 °F 82% 30.07 in 10.0 mi WNW 6.9 mph - N/A   Overcast
11:15 AM 30.2 °F - 25.3 °F 82% 30.08 in 10.0 mi Calm Calm - N/A   Overcast
11:35 AM 30.2 °F 25.4 °F 25.9 °F 84% 30.07 in 10.0 mi NW 4.6 mph - N/A   Overcast
11:55 AM 30.4 °F 25.6 °F 25.7 °F 83% 30.06 in 7.0 mi North 4.6 mph - N/A   Overcast
12:15 PM 30.6 °F 23.8 °F 25.0 °F 80% 30.06 in 10.0 mi NNW 6.9 mph - N/A   Overcast
12:35 PM 30.2 °F 25.4 °F 24.8 °F 80% 30.06 in 10.0 mi NNE 4.6 mph - N/A   Overcast
12:55 PM 30.2 °F 25.4 °F 24.8 °F 80% 30.05 in 10.0 mi NNE 4.6 mph - N/A   Overcast
1:15 PM 30.9 °F 26.2 °F 24.8 °F 78% 30.04 in 10.0 mi NNW 4.6 mph - N/A   Overcast
1:35 PM 31.1 °F - 24.8 °F 77% 30.04 in 10.0 mi Calm Calm - N/A   Overcast
1:55 PM 31.6 °F 27.0 °F 24.4 °F 75% 30.03 in 5.0 mi NW 4.6 mph - N/A Snow Light Snow
2:15 PM 32.0 °F 28.7 °F 24.8 °F 75% 30.03 in 7.0 mi NW 3.5 mph - N/A Snow Light Snow
2:35 PM 32.0 °F 26.4 °F 24.4 °F 74% 30.03 in 5.0 mi West 5.8 mph - N/A Snow Light Snow
2:55 PM 32.0 °F 23.0 °F 22.6 °F 68% 30.03 in 10.0 mi WNW 11.5 mph - N/A   Overcast
3:15 PM 32.0 °F 25.6 °F 22.3 °F 67% 30.03 in 10.0 mi NW 6.9 mph - N/A   Overcast
3:35 PM 31.1 °F 25.4 °F 23.0 °F 72% 30.03 in 10.0 mi NW 5.8 mph - N/A   Overcast
3:55 PM 30.0 °F 25.2 °F 24.8 °F 81% 30.04 in 3.0 mi NW 4.6 mph - N/A Snow Light Snow
4:15 PM 29.5 °F 23.4 °F 25.0 °F 83% 30.04 in 2.5 mi North 5.8 mph - N/A Snow Light Snow
4:35 PM 28.4 °F 23.3 °F 23.5 °F 82% 30.04 in 5.0 mi North 4.6 mph - N/A Snow Light Snow
4:55 PM 28.9 °F 22.8 °F 23.2 °F 79% 30.04 in 10.0 mi NW 5.8 mph - N/A   Overcast
5:15 PM 29.3 °F 25.6 °F 23.0 °F 77% 30.04 in 10.0 mi NNW 3.5 mph - N/A   Overcast
5:35 PM 29.1 °F 25.4 °F 23.0 °F 78% 30.05 in 10.0 mi North 3.5 mph - N/A   Overcast
5:55 PM 29.3 °F 22.3 °F 22.1 °F 75% 30.06 in 10.0 mi WNW 6.9 mph - N/A   Overcast
6:15 PM 29.3 °F - 21.2 °F 72% 30.06 in 10.0 mi Calm Calm - N/A   Overcast
6:35 PM 28.9 °F 23.9 °F 20.8 °F 72% 30.06 in 10.0 mi NNW 4.6 mph - N/A   Overcast
6:55 PM 28.9 °F 25.2 °F 20.3 °F 70% 30.08 in 10.0 mi North 3.5 mph - N/A   Overcast
7:15 PM 28.6 °F 24.8 °F 20.3 °F 71% 30.08 in 10.0 mi WNW 3.5 mph - N/A   Overcast
7:35 PM 28.4 °F 24.6 °F 19.8 °F 70% 30.09 in 10.0 mi North 3.5 mph - N/A   Overcast
7:55 PM 28.4 °F - 19.2 °F 69% 30.09 in 10.0 mi Calm Calm - N/A   Overcast
8:15 PM 28.2 °F - 19.4 °F 70% 30.09 in 10.0 mi Calm Calm - N/A   Overcast
8:35 PM 27.3 °F 23.4 °F 19.9 °F 74% 30.09 in 10.0 mi NNW 3.5 mph - N/A   Overcast
8:55 PM 27.0 °F - 20.3 °F 76% 30.10 in 10.0 mi Calm Calm - N/A   Overcast
9:15 PM 26.6 °F 20.0 °F 20.3 °F 77% 30.10 in 10.0 mi NNW 5.8 mph - N/A   Overcast
9:35 PM 26.2 °F 19.6 °F 20.3 °F 78% 30.10 in 10.0 mi NW 5.8 mph - N/A   Overcast
9:55 PM 26.1 °F 20.5 °F 20.3 °F 79% 30.11 in 10.0 mi NNW 4.6 mph - N/A   Mostly Cloudy
10:15 PM 25.7 °F 20.1 °F 20.3 °F 80% 30.11 in 10.0 mi NNW 4.6 mph - N/A   Scattered Clouds
10:35 PM 25.7 °F - 20.1 °F 79% 30.11 in 10.0 mi Calm Calm - N/A   Mostly Cloudy
10:55 PM 25.5 °F 18.7 °F 19.9 °F 79% 30.11 in 10.0 mi NNW 5.8 mph - N/A   Mostly Cloudy
11:15 PM 25.5 °F 21.3 °F 19.9 °F 79% 30.12 in 10.0 mi North 3.5 mph - N/A   Mostly Cloudy
11:35 PM 25.3 °F 21.1 °F 20.1 °F 81% 30.11 in 10.0 mi North 3.5 mph - N/A   Scattered Clouds
11:55 PM 25.0 °F 19.3 °F 19.9 °F 81% 30.11 in 10.0 mi North 4.6 mph - N/A   Scattered Clouds